Skip Page Navigation
NASA JPL Caltech
NASA Logo - Jet Propulsion Laboratory + View the NASA Portal
+ Center for Near-Earth Object Studies
JPL Home Earth Solar System Stars & Galaxies Technology
JPL Solar System Dynamics
BODIES ORBITS EPHEMERIDES TOOLS PHYSICAL DATA DISCOVERY FAQ SITE MAP
JPL Small-Body Database Browser
Search: [ help ]  
46082 (2001 EC10)
Classification: Main-belt Asteroid          SPK-ID: 2046082
Ephemeris | Orbit Diagram | Orbital Elements | Mission Design | Physical Parameters | Discovery Circumstances ]

[ show orbit diagram ]
Orbital Elements at Epoch 2459200.5 (2020-Dec-17.0) TDB
Reference: JPL 29 (heliocentric ecliptic J2000)
 Element Value Uncertainty (1-sigma)   Units 
e .05197854751136551 3.4619e-08  
a 2.616798702321549 1.1975e-08 au
q 2.480781306645248 8.8957e-08 au
i 3.618296632775515 3.9848e-06 deg
node 116.2484113629048 5.9934e-05 deg
peri 206.4201168064738 7.186e-05 deg
M 98.48382305007362 3.8589e-05 deg
tp 2458777.523441905089
(2019-Oct-21.02344191)
0.00016622 TDB
period 1546.158101891986
4.23
1.0613e-05
2.906e-08
d
yr
n .2328351800242674 1.5982e-09 deg/d
Q 2.752816097997849 1.2597e-08 au
  Orbit Determination Parameters
   # obs. used (total)      1036  
   data-arc span      10118 days (27.70 yr)  
   first obs. used      1993-05-21  
   last obs. used      2021-02-01  
   planetary ephem.      DE441  
   SB-pert. ephem.      SB441-N16  
   condition code      0  
   norm. resid. RMS      .53318  
   source      ORB  
   producer      Otto Matic  
   solution date      2021-Apr-13 09:46:15  

Additional Information
 Earth MOID = 1.46653 au 
 Jupiter MOID = 2.40014 au 
 T_jup = 3.402 
[ show covariance matrix ]

Ephemeris | Orbit Diagram | Orbital Elements | Mission Design | Physical Parameters | Discovery Circumstances ]

Physical Parameter Table
Parameter Symbol Value Units Sigma Reference Notes
absolute magnitude H 15.31   n/a MPCxxxxx  

46082 (2001 EC10)          Discovered 2001-Mar-02 by LONEOS at Anderson Mesa
Reference: 20020822/Numbers.arcLast Updated: 2004-04-19

Alternate Designations
 2001 EC10 = 2000 AA72 
Ephemeris | Orbit Diagram | Orbital Elements | Mission Design | Physical Parameters | Discovery Circumstances ]
ABOUT SSD CREDITS/AWARDS PRIVACY/COPYRIGHT GLOSSARY LINKS
FirstGov 2021-Jun-19 16:59 UT
(server date/time)  
NASA Home Page
Site Manager:   Ryan S. Park
Webmaster  Alan B. Chamberlin